Location: Bun Machan
(52.1403°N, 7.3744°W)
Time: 02:57:03
(UTC+00:00)

Cosmos 2173 Rocket - Pass Details

Date: 14 July 2020
Orbit: 944 x 1001 km, 83.0° (Epoch: 04 August)

Event Time Altitude Azimuth Distance (km) Brightness Sun altitude
Exits shadow 01:43:02 18° 173° (S) 2,226 5.3 -14.8°
Maximum altitude 01:47:50 67° 95° (E) 1,072 4.3 -14.6°
Drops below altitude 10° 01:54:05 10° 14° (NNE) 2,748 7.8 -14.3°
Sets 01:56:36 0° 12° (NNE) 3,692 8.9 -14.1°
